TIME,DELAY(SENSOR),PRES,T(CTD),SAL,OXYGEN,RAWTEMP,T(OPTODE),TCPHASE,FLUOR,BETA(BETA700),BETA(BETA412),BETA(BETA440),CDOM,C(CSC),ED(ED411.90),ED(ED443.80),ED(ED489.40),ED(ED554.70),LU(LU412.20),LU(LU443.80),LU(LU489.40),LU(LU555.00),COMP,TILTX,TILTX(TILTY),CHECK
1368202318,5805,497.5599975585937500,17.0515003204345700,36.3711013793945300,215.7998046875000000,186.3123016357422000,17.0609703063964840,32.1343193054199200,50,102,94,79,67,10794,2146959680,2147517586,2147270125,2147458642,2147079643,2146956534,2147658642,2147123181,1341,-1,8,35092
1368202445,5805,485.9400024414062500,17.2600994110107420,36.4114990234375000,218.8170928955078000,179.3428039550781200,17.2711601257324220,31.8772697448730470,50,100,96,80,67,10794,2146958811,2147517668,2147268507,2147457307,2147079030,2146956370,2147651849,2147118610,304,-2,7,39814
1368202563,5801,475.3299865722656000,17.4053993225097660,36.4384994506835940,221.3013000488281200,175.1311950683593800,17.3981895446777340,31.6892700195312500,50,103,95,80,67,10796,2146958491,2147517165,2147267190,2147456694,2147081563,2146952164,2147658221,2147119936,2963,-1,8,39424
1368202690,5803,464.1099853515625000,17.4846000671386720,36.4544982910156250,223.4859924316406200,172.0272064208984400,17.4918403625488280,31.5336208343505860,51,102,96,80,68,10796,2146959460,2147515053,2147268361,2147454793,2147080356,2146959158,2147653668,2147120402,2546,-1,8,20750
1368202819,5801,453.1400146484375000,17.6261997222900400,36.4798011779785160,224.3260040283203000,167.7651062011718800,17.6204490661621100,31.4324302673339840,50,101,95,79,67,10796,2146960585,2147513590,2147267273,2147454198,2147077632,2146959606,2147653897,2147123867,2060,-1,8,31522
1368202946,5804,442.6900024414062500,17.7362003326416000,36.5001983642578100,225.5859069824218800,163.9967041015625000,17.7341804504394530,31.3171195983886720,50,101,96,80,68,10797,2146958281,2147515410,2147267072,2147450523,2147081545,2146956050,2147655872,2147130870,2062,-1,8,43474
1368203085,5807,431.6000061035156000,17.8094997406005860,36.5134010314941400,227.1880035400390600,161.6006011962890600,17.8065109252929700,31.2038402557373050,51,100,94,80,66,10797,2146955181,2147512612,2147267830,2147449142,2147079232,2146956416,2147652873,2147129444,2339,-1,8,19345
1368203227,5802,420.5499877929687500,17.9251003265380860,36.5315017700195300,229.0090026855468800,157.6128997802734400,17.9269104003906250,31.0588302612304700,50,100,93,79,67,10801,2146956928,2147516900,2147267611,2147454683,2147082834,2146959698,2147656109,2147128000,1635,-1,8,41739
1368203366,5805,409.8500061035156000,17.9797000885009770,36.5405998229980500,228.1477050781250000,155.8692932128906200,17.9795608520507800,31.0783290863037100,50,98,96,80,68,10800,2146956534,2147514907,2147265618,2147448118,2147079296,2146960301,2147651867,2147127661,1148,-1,8,6910
1368203515,5806,396.8800048828125000,18.0431995391845700,36.5485992431640600,227.1542053222656200,153.8731994628906200,18.0398406982421880,31.1012001037597660,50,100,95,81,68,10795,2146959597,2147514944,2147266697,2147451529,2147078820,2146952978,2147655314,2147130514,641,-1,8,7078
1368203618,5806,386.2300109863281000,18.1163005828857420,36.5578994750976560,226.4564971923828000,151.3948059082031200,18.1147003173828120,31.1028404235839840,50,101,95,80,67,10795,2146957494,2147515748,2147265883,2147451172,2147081042,2146957677,2147652041,2147130596,135,-1,8,31444
1368203733,5807,374.0400085449219000,18.1989002227783200,36.5679016113281250,225.9335021972656200,148.5850067138672000,18.1995906829834000,31.0915908813476560,51,98,95,79,67,10796,2146954925,2147517101,2147264804,2147451117,2147077952,2146967908,2147651584,2147127286,299,-1,8,25401
1368203853,5802,362.3200073242187500,18.2931995391845700,36.5796012878418000,225.1569061279297000,145.7084960937500000,18.2865104675292970,31.0918197631835940,50,100,95,80,67,10797,2146958921,2147518528,2147266148,2147448859,2147076150,2146965330,2147652342,2147128338,2925,-1,8,31718
1368203980,5808,351.3999938964844000,18.3834991455078120,36.5899009704589840,223.5413055419922000,142.4788970947265600,18.3841094970703120,31.1305103302001950,50,101,94,80,67,10793,2146956918,2147516224,2147267776,2147450093,2147072996,2146962532,2147654281,2147128630,2767,-1,8,32929
1368204109,5801,340.2799987792969000,18.4312000274658200,36.5955009460449200,223.0316009521484400,141.0650024414062500,18.4268493652343750,31.1376590728759770,50,100,94,81,67,10796,2146960822,2147515282,2147266112,2147449645,2147073316,2146958811,2147653586,2147127387,2251,-1,8,13010
1368204236,5804,329.1600036621094000,18.4685001373291000,36.6001014709472660,222.6647949218750000,139.8659057617187500,18.4631004333496100,31.1402606964111330,50,100,93,79,67,10790,2146952667,2147515163,2147264850,2147448658,2147075894,2146966747,2147655789,2147128868,2419,-1,8,38830
1368204363,5804,317.9500122070312500,18.5065994262695300,36.6053009033203100,222.2778930664062500,138.5769958496093800,18.5020694732666000,31.1424903869628900,50,100,96,81,67,10796,2146958098,2147516022,2147265600,2147447680,2147079250,2146965641,2147655652,2147130340,1921,-1,8,11294
1368204481,5804,307.4400024414062500,18.5389995574951170,36.6081008911132800,221.6434020996093800,137.4154052734375000,18.5371894836425780,31.1595706939697270,50,100,96,81,68,10796,2146960987,2147516763,2147265810,2147443940,2147076388,2146965915,2147661485,2147131684,2186,-1,8,43637
1368204608,5807,296.3699951171875000,18.6611995697021500,36.6165008544921900,220.3842010498047000,133.1828002929687500,18.6651897430419920,31.1677799224853500,51,103,95,81,67,10794,2146958189,2147516818,2147263780,2147446518,2147081590,2146966729,2147659291,2147130395,2699,-2,8,37068
1368204737,5804,285.7300109863281000,18.8701992034912100,36.6162986755371100,216.7308044433593800,126.6812973022461000,18.8619003295898440,31.2714195251464840,50,106,98,83,68,10784,2146957156,2147516397,2147266624,2147448228,2147073142,2146970331,2147668882,2147130203,3262,-1,8,10721
1368204888,5805,274.2799987792969000,19.0380001068115230,36.6192016601562500,216.4447021484375000,121.1635971069336000,19.0289192199707030,31.2121391296386720,50,107,96,81,67,10777,2146958436,2147515483,2147267190,2147447296,2147069366,2146975661,2147680731,2147131373,3280,-1,8,40060
1368205060,5804,261.5700073242187500,19.1478004455566400,36.6167984008789060,222.9284057617187500,117.3270034790039000,19.1451091766357420,30.8255290985107420,51,105,95,82,67,10780,2146959104,2147515867,2147268214,2147447396,2147068781,2146987337,2147692672,2147132589,3094,-2,8,1525
1368205184,5805,250.1799926757812500,19.2192993164062500,36.6082000732421900,228.7843933105468800,114.7518005371093800,19.2231197357177730,30.4984493255615230,51,109,96,83,66,10776,2146959222,2147514349,2147268809,2147444644,2147076708,2146997595,2147707702,2147131136,2084,-2,8,51461
1368205299,5809,238.9700012207031200,19.3101005554199220,36.6236991882324200,228.5278015136718800,111.4608001708984400,19.3228397369384770,30.4676990509033200,50,109,97,83,67,10781,2146958592,2147517915,2147269403,2147444032,2147078902,2147010633,2147740525,2147134253,1727,-1,8,1345
1368205417,5808,227.8399963378906200,19.4228000640869140,36.6277999877929700,229.5207977294922000,108.1628036499023400,19.4228096008300780,30.3754405975341800,50,110,96,82,67,10774,2146958491,2147516324,2147268041,2147442770,2147077065,2147036434,2147770578,2147138157,2641,-1,8,10538
1368205532,5805,217.8899993896484400,19.4395008087158200,36.6105995178222660,237.3533935546875000,107.5131988525390600,19.4424991607666000,29.9912395477294920,51,110,98,83,65,10777,2146955190,2147517970,2147269321,2147442971,2147086701,2147057709,2147818715,2147138157,1607,-1,8,5997
1368205673,5804,206.7200012207031200,19.5683002471923830,36.6071014404296900,241.3576965332031200,103.3048019409179700,19.5701198577880860,29.7500896453857420,52,111,98,83,65,10770,2146958262,2147517641,2147270555,2147441627,2147089572,2147095296,2147883145,2147142610,1252,-1,8,50535
1368205800,5806,197.2700042724609400,19.6898002624511720,36.6188011169433600,249.1432952880859400,99.4803237915039000,19.6861400604248050,29.3491592407226560,51,108,98,84,63,10773,2146959104,2147520338,2147274496,2147440768,2147097947,2147138560,2147950427,2147146569,1144,-1,9,7970
1368205855,5805,193.2500000000000000,19.7028007507324220,36.6184005737304700,249.3585052490234400,99.1247100830078100,19.6969394683837900,29.3350200653076170,52,108,97,83,63,10773,2146958253,2147519725,2147276681,2147440969,2147099446,2147162788,2147990710,2147148187,1091,-2,8,35781
1368205910,5805,189.2500000000000000,19.7110004425048830,36.6132011413574200,249.3963928222656200,98.5944137573242200,19.7130298614501950,29.3266296386718750,52,110,98,84,64,10772,2146960813,2147520676,2147279131,2147439899,2147110171,2147185600,2148032201,2147150189,574,-2,8,33167
1368205985,5803,184.0200042724609400,19.8260002136230470,36.6265983581543000,249.0821075439453000,95.1946334838867200,19.8162193298339840,29.2966995239257800,52,113,99,83,64,10770,2146962587,2147524406,2147281709,2147437760,2147118198,2147218331,2148066249,2147153965,3089,-1,8,27858
1368206052,5804,179.6699981689453000,19.8535003662109380,36.6296005249023440,248.6640014648437500,94.1336593627929700,19.8484306335449220,29.3017005920410160,52,112,97,84,64,10768,2146960036,2147522569,2147284352,2147440786,2147133888,2147265325,2148137481,2147158619,2976,-1,9,24878
1368206107,5806,175.9900054931640600,19.9102001190185550,36.6281013488769500,248.8020935058593800,92.2210769653320300,19.9064998626709000,29.2710704803466800,55,110,98,82,64,10773,2146960082,2147522075,2147281216,2147440640,2147137051,2147305755,2148201609,2147161234,16,-2,8,13486
1368206174,5803,171.6199951171875000,19.9538993835449220,36.6226005554199200,249.1199035644531200,90.3134536743164000,19.9644393920898440,29.2323703765869140,59,112,98,84,63,10765,2146959936,2147525558,2147283017,2147441536,2147153929,2147351616,2148265252,2147164580,3126,-2,9,27884
1368206229,5805,168.0899963378906200,20.0349998474121100,36.6287994384765600,248.4868011474609400,87.9566268920898400,20.0360393524169920,29.2301998138427730,60,109,98,83,64,10760,2146960548,2147525293,2147287844,2147442651,2147169874,2147388772,2148323410,2147165952,2865,-1,8,3199
1368206308,5804,163.6399993896484400,20.1193008422851560,36.6369018554687500,249.6325988769531200,85.2328872680664000,20.1187992095947270,29.1447391510009770,61,115,98,84,63,10766,2146960448,2147525613,2147290020,2147444534,2147183104,2147450944,2148416868,2147169810,2482,-2,8,62731
1368206399,5804,159.4900054931640600,20.1679992675781250,36.6338996887207000,250.2760925292968800,83.6983871459961000,20.1654491424560550,29.0969905853271500,63,110,97,83,64,10761,2146960612,2147530322,2147297371,2147443163,2147206674,2147513426,2148500726,2147178669,2479,-1,8,31689
1368206490,5808,155.5000000000000000,20.2042007446289060,36.6346015930175800,249.2377014160156200,82.1701583862304700,20.2119102478027340,29.1231498718261720,65,112,98,84,63,10759,2146963172,2147531437,2147298660,2147438491,2147227894,2147585380,2148611136,2147184009,2638,-1,9,28104
1368206581,5806,151.5399932861328000,20.2730007171630860,36.6363983154296900,248.6837005615234400,80.4830093383789000,20.2632102966308600,29.1261405944824220,73,114,98,84,64,10759,2146961965,2147532809,2147301238,2147440804,2147252388,2147668736,2148725714,2147192941,2722,-1,9,46628
1368206675,5806,147.5599975585937500,20.3405990600585940,36.6418991088867200,247.3663940429687500,78.2981109619140600,20.3296604156494140,29.1565608978271500,77,122,98,83,63,10750,2146962870,2147535689,2147304448,2147437668,2147299794,2147782738,2148890130,2147203300,2891,-1,8,36669
1368206766,5805,143.6399993896484400,20.3974990844726560,36.6460990905761700,247.8023986816406200,76.3089370727539000,20.3901691436767580,29.1117095947265620,83,125,100,86,65,10742,2146965403,2147538953,2147313673,2147437641,2147344384,2147886619,2149030637,2147212790,13,-2,8,18985
1368206857,5805,139.8600006103515600,20.4381008148193360,36.6468009948730500,248.3148956298828000,74.8787612915039000,20.4336891174316400,29.0708503723144530,89,122,100,86,63,10741,2146965604,2147543058,2147319753,2147441362,2147393664,2148014262,2149213750,2147225398,3197,-1,8,22536
1368206962,5807,135.6799926757812500,20.4820995330810550,36.6473999023437500,248.4835968017578000,73.5264816284179700,20.4748497009277340,29.0461902618408200,99,120,100,85,64,10729,2146969682,2147548050,2147331126,2147441142,2147466953,2148191323,2149464740,2147241106,3543,-1,9,64383
1368207065,5809,132.1000061035156200,20.5133991241455080,36.6461982727050800,247.4656982421875000,72.4889068603515600,20.5064296722412100,29.0780391693115230,105,120,99,84,64,10728,2146969179,2147555382,2147337572,2147440539,2147536667,2148335478,2149668452,2147254445,27,-1,8,8922
1368207204,5808,128.1300048828125000,20.5774993896484380,36.6473007202148440,246.3861999511718800,70.4536132812500000,20.5683898925781250,29.1001491546630860,116,119,100,85,64,10723,2146974445,2147557129,2147345609,2147438445,2147627318,2148514843,2149918025,2147274422,395,-2,9,54823
1368207340,5806,123.7099990844726600,20.6849994659423830,36.6534996032714840,245.1519012451172000,66.8076629638671900,20.6794395446777340,29.1086006164550780,122,124,99,83,63,10721,2146979190,2147563126,2147361517,2147438144,2147762404,2148745609,2150246994,2147303670,832,-1,8,54242
1368207443,5807,119.7799987792968800,20.7436008453369140,36.6492004394531250,245.5865020751953000,64.7663574218750000,20.7416305541992200,29.0632190704345700,133,126,99,83,64,10713,2146978852,2147572571,2147375012,2147440320,2147895286,2148969865,2150556324,2147330166,783,-2,9,38079
1368207546,5806,115.7699966430664000,20.8325004577636720,36.6442985534668000,246.8329010009765600,62.1135292053222660,20.8224792480468750,28.9740200042724600,142,121,99,84,63,10702,2146988617,2147578861,2147390582,2147442221,2148086080,2149303890,2150997101,2147370605,204,-2,9,39429
1368207637,5805,111.6699981689453100,20.9391002655029300,36.6319999694824200,248.9122009277343800,58.5288581848144500,20.9317798614501950,28.8370094299316400,142,125,97,84,64,10696,2146994980,2147591716,2147408054,2147441609,2148331328,2149702070,2151531629,2147421705,2965,-1,8,29435
1368207704,5804,108.0500030517578100,20.9825992584228500,36.6287994384765600,252.0059051513672000,56.9540214538574200,20.9798107147216800,28.6824607849121100,145,124,98,84,63,10691,2147003419,2147605842,2147434742,2147442724,2148624530,2150177115,2152155849,2147483062,3098,-2,9,45173
1368207771,5806,104.4000015258789000,21.0806007385253900,36.6259994506835940,253.8589935302734400,53.8468208312988300,21.0746192932128900,28.5637702941894530,145,124,99,85,64,10693,2147018486,2147621760,2147463634,2147442624,2148971766,2150736036,2152858404,2147552448,2642,-1,9,33869
1368207850,5803,100.3499984741211000,21.1991996765136720,36.6183013916015600,256.7760009765625000,50.1915283203125000,21.1861991882324220,28.3939990997314450,126,124,99,85,63,10686,2147030930,2147644873,2147501430,2147447094,2149477275,2151534098,2153813010,2147650240,2503,-1,9,29817
1368207908,5804,97.6500015258789000,21.2465991973876950,36.6226005554199200,258.1716003417969000,48.5395889282226560,21.2366504669189450,28.3147392272949220,118,125,102,86,64,10680,2147049856,2147668982,2147540452,2147449060,2149951954,2152290240,2154706642,2147739693,2221,-2,9,49155
1368207963,5803,95.2399978637695300,21.3188991546630860,36.6197013854980500,257.3067932128906000,46.3575515747070300,21.3033008575439450,28.3237800598144530,125,131,100,86,64,10677,2147058496,2147689819,2147572077,2147447981,2150387958,2152969664,2155492800,2147827264,1949,-2,9,62469
1368208018,5808,93.0100021362304700,21.4064006805419920,36.6104011535644500,257.1654052734375000,43.4724197387695300,21.3914699554443360,28.2936897277832030,124,136,102,85,63,10673,2147075520,2147716059,2147614765,2147451565,2150866761,2153713938,2156370541,2147914185,1674,-1,9,39488
1368208073,5808,91.0699996948242200,21.4293994903564450,36.6094017028808600,258.4580993652344000,42.5523796081543000,21.4195899963378900,28.2280406951904300,118,126,101,86,63,10670,2147092498,2147736182,2147649334,2147453293,2151342884,2154437202,2157164150,2148002761,1757,-1,9,5521
1368208140,5807,88.8499984741211000,21.3894004821777340,36.5726013183593750,259.1271972656250000,43.5709609985351560,21.3884601593017580,28.2127208709716800,123,125,102,86,63,10666,2147113389,2147760859,2147679021,2147454720,2151940681,2155348662,2158168667,2148111990,2374,-2,9,30629
1368208195,5805,87.2099990844726600,21.3537006378173830,36.5536003112793000,260.1187133789062500,44.5378189086914060,21.3589096069335940,28.1837196350097660,121,132,101,87,62,10668,2147129206,2147787757,2147713664,2147457755,2152470930,2156113371,2158998436,2148204452,2100,-1,9,48341
1368208275,5806,84.3000030517578100,21.4130992889404300,36.5267982482910160,262.4070129394531000,40.3755493164062500,21.4861507415771500,28.0376396179199220,111,129,103,87,63,10661,2147168804,2147845531,2147793654,2147464950,2153713892,2157911104,2160898459,2148420123,1942,-2,9,7391
1368208330,5805,82.0100021362304700,21.7269992828369140,36.5457000732421900,264.1200866699219000,33.4026985168457000,21.6994991302490230,27.8813591003417970,107,130,102,87,61,10654,2147205586,2147891108,2147872667,2147470848,2154769060,2159360868,2162342445,2148587090,1582,-1,9,38121
1368208385,5806,80.2099990844726600,21.7754993438720700,36.5399017333984400,268.1706848144531000,31.0609493255615230,21.7712001800537100,27.6894207000732420,102,137,103,86,61,10667,2147242532,2147938688,2147916928,2147471286,2155851849,2160851181,2163811876,2148739730,1949,-1,9,42167
1368208464,5804,78.3399963378906200,22.0963001251220700,36.4790992736816400,265.9768066406250000,21.7804698944091800,22.0556297302246100,27.6631698608398440,99,129,100,88,63,10654,2147279972,2147986404,2147969334,2147473115,2156934262,2162296530,2165158235,2148887881,2061,-1,9,28186
1368208614,5807,76.4100036621093800,22.2374992370605470,36.4053001403808600,267.1983032226562500,16.1457290649414060,22.2285404205322270,27.5450096130371100,90,132,103,88,63,10659,2147338523,2148058121,2148068269,2147476470,2158566509,2164389238,2167130358,2149083648,1966,-1,9,45889
1368208717,5808,74.2699966430664000,22.2476997375488280,36.3992996215820300,273.0589904785156000,15.5792503356933600,22.2459392547607420,27.3073806762695300,84,130,103,87,61,10656,2147407424,2148144100,2148177161,2147483273,2160478409,2166895030,2169501888,2149326793,1838,-1,9,53625
1368208808,5801,72.2500000000000000,22.2560005187988280,36.3961982727050800,277.0473022460937500,15.3021097183227540,22.2544498443603500,27.1502990722656250,84,134,105,87,59,10665,2147466706,2148217526,2148250578,2147485266,2162335963,2169298029,2171687460,2149551067,2036,-2,9,39562
1368208887,5803,69.7799987792968800,22.2798004150390620,36.3955001831054700,272.2207946777344000,14.5978403091430660,22.2760696411132800,27.3280296325683600,78,133,104,88,61,10667,2147565074,2148337654,2148379044,2147494235,2165451392,2173356553,2175385545,2149918198,2426,-1,9,59787
1368208942,5802,67.3499984741211000,22.2826995849609380,36.3950004577636700,268.2289123535156000,14.4150104522705080,22.2816905975341800,27.4828300476074220,79,131,104,89,61,10667,2147651245,2148436726,2148505453,2147502720,2168222180,2176904393,2178646747,2150261988,2430,-2,9,55403
1368208997,5802,64.9000015258789000,22.2971992492675780,36.3955993652343750,268.7901916503906000,13.9602499008178710,22.2956600189209000,27.4549694061279300,75,137,104,88,58,10666,2147746560,2148552841,2148652800,2147515620,2171347611,2180887963,2182385737,2150697334,2055,-1,9,25684
1368209052,5807,62.3699989318847660,22.3187999725341800,36.3958015441894500,269.6849060058594000,13.2904100418090820,22.3162307739257800,27.4114799499511720,74,131,103,87,60,10649,2147856950,2148692370,2148839926,2147536713,2174809270,2185236224,2186442806,2151141897,1761,-1,9,54879
1368209107,5805,59.6899986267089840,22.3542003631591800,36.3891983032226560,269.3138122558594000,12.0534896850585940,22.3542308807373050,27.4109096527099600,74,133,103,88,60,10651,2147962285,2148818166,2149007753,2147551990,2178512502,2189849938,2190729188,2151700544,1723,-1,9,29051
1368209162,5807,56.9799995422363300,22.4764003753662100,36.3661003112793000,270.4446105957031000,8.4202318191528320,22.4658908843994140,27.3221397399902340,74,130,104,90,62,10651,2148067483,2148927213,2149091702,2147554230,2182267684,2194454491,2194730697,2152206025,2536,-3,9,58735
1368209220,5802,54.8199996948242200,22.6760997772216800,36.3548011779785160,273.8599853515625000,1.9277130365371704,22.6656208038330080,27.1102008819580080,76,128,104,88,61,10645,2148155163,2149033188,2149225590,2147563986,2185571227,2198597266,2198738761,2152758262,2300,-2,9,33925
1368209375,5806,52.7299995422363300,23.0769004821777340,36.3465995788574200,286.9653015136719000,-10.1860599517822270,23.0389099121093750,26.4726600646972660,78,137,103,87,61,10622,2148227968,2149105636,2149322267,2147576667,2188175204,2201775469,2201737234,2153211181,2780,-2,9,32988
1368209628,5807,50.6599998474121100,23.2903995513916000,36.3389015197753900,285.6065063476562500,-18.9660491943359380,23.3100109100341800,26.4171390533447270,77,129,104,87,59,10620,2148331200,2149241526,2149576630,2147626377,2192178688,2206248210,2206375369,2154062829,1738,-3,9,42344
1368209714,5805,48.8199996948242200,23.7059001922607420,36.3300018310546900,280.1445007324219000,-31.0991992950439450,23.6854400634765620,26.4738502502441400,78,137,101,88,62,10614,2148402386,2149324032,2149649398,2147632676,2194963913,2209485577,2209186532,2154627501,1910,-2,9,7045
1368209876,5803,46.9000015258789060,24.1655006408691400,36.3268013000488300,282.4573059082031000,-47.1250495910644500,24.1828002929687500,26.1969108581542970,85,135,102,86,60,10595,2148498066,2149425216,2149755840,2147639734,2199101302,2214381238,2213621833,2155367296,2194,-3,9,42436
1368210233,5805,44.8600006103515600,24.8486995697021500,36.2662010192871100,273.1077880859375000,-65.5985794067382800,24.7583293914794920,26.3267307281494140,101,128,100,88,63,10588,2148514678,2149454262,2149848539,2147668077,2200142546,2215264036,2214792621,2155899638,1953,-1,9,22624
1368210794,5808,42.5099983215332000,25.1011009216308600,36.1671981811523440,305.4903869628906000,-76.8848571777343800,25.1111793518066400,25.0398292541503900,81,129,100,87,60,10596,2148629805,2149557028,2149994852,2147698953,2203216045,2218655405,2219045449,2157200265,1978,-1,9,12854
1368210841,5805,40.7299995422363300,25.1138992309570300,36.1641006469726560,301.1774902343750000,-77.2063598632812500,25.1212406158447270,25.1813106536865230,76,128,100,86,60,10608,2148784036,2149722880,2150169965,2147719771,2208023387,2223551652,2222819163,2158168758,2082,-1,9,26327
1368210901,5801,38.7200012207031250,25.1371002197265620,36.1601982116699200,277.7968139648437500,-77.8417816162109400,25.1411399841308600,26.0046291351318360,72,123,100,86,61,10617,2148977042,2149921590,2150358802,2147741650,2214299099,2230601389,2228795620,2159364452,2326,-2,9,28777
1368210974,5805,36.7200012207031250,25.1397991180419920,36.1589012145996100,263.6148986816406000,-78.0124130249023400,25.1464805603027340,26.5467700958251950,68,123,101,85,63,10622,2149202395,2150146560,2150559277,2147765714,2221504164,2238308096,2234856768,2160787958,2658,-1,9,56225
1368211071,5804,33.6599998474121100,25.1413002014160160,36.1582984924316400,263.1693115234375000,-78.0317916870117200,25.1470909118652340,26.5642108917236330,67,120,101,85,61,10626,2149629677,2150593892,2151035300,2147852644,2235488356,2253201993,2247227913,2163763373,2459,-1,9,27973
1368211118,5802,31.1599998474121100,25.1418991088867200,36.1582984924316400,261.4265136718750000,-78.0851898193359400,25.1487598419189450,26.6329994201660160,65,121,100,84,62,10629,2149992731,2150987318,2151473737,2147946422,2249027666,2268322148,2260213302,2166890112,2267,-2,9,59826